FW1564 Weather Reports


time (UTC)temp
C
wind
direction
speed
KPH
gust
KPH
rain 1hr
cm
rain 24hr
cm
rain mn
cm
humidity
%
barometer
mb
20260905131758 22 186 6.4 16.1 0.00 0.00 0.00 79 1021.2
20260905130758 22 101 8.0 11.3 0.00 0.00 0.00 80 1021.1
20260905125758 22 123 4.8 14.5 0.00 0.00 0.00 80 1021.3
20260905124757 22 113 6.4 12.9 0.00 0.00 0.00 80 1021.2
20260905123758 22 61 6.4 16.1 0.00 0.00 0.00 80 1021.2
20260905122758 22 75 3.2 12.9 0.00 0.00 0.00 79 1021.2
20260905121759 22 226 3.2 14.5 0.00 0.00 0.00 79 1021.5
20260905120758 22 161 9.7 16.1 0.00 0.00 0.00 80 1021.5
20260905115758 22 99 8.0 14.5 0.00 0.00 0.00 78 1021.3
20260905115238 23 140 8.0 16.1 0.00 0.00 0.00 77 1021.2
20260905113758 22 123 8.0 16.1 0.00 0.00 0.00 77 1021.1
20260905112758 22 146 9.7 14.5 0.00 0.00 0.00 78 1021.5
20260905111758 22 153 4.8 11.3 0.00 0.00 0.00 80 1021.5
20260905110758 21 189 4.8 11.3 0.00 0.00 0.00 79 1021.7
20260905110235 21 141 6.4 14.5 0.00 0.00 0.00 79 1021.6
20260905105231 22 127 9.7 12.9 0.00 0.00 0.00 78 1021.6
20260905103758 22 129 3.2 14.5 0.00 0.00 0.00 77 1021.6
20260905102758 23 172 4.8 11.3 0.00 0.00 0.00 73 1021.2
20260905101758 22 171 6.4 14.5 0.00 0.00 0.00 72 1021.2
20260905100759 22 344 6.4 11.3 0.00 0.00 0.00 71 1021.0
20260905095758 22 54 3.2 12.9 0.00 0.00 0.00 72 1021.1
20260905095235 21 132 1.6 9.7 0.00 0.00 0.00 74 1020.8
20260905093758 22 131 8.0 9.7 0.00 0.00 0.00 72 1020.6
20260905092758 22 38 3.2 6.4 0.00 0.00 0.00 74 1020.8
20260905091759 21 198 1.6 6.4 0.00 0.00 0.00 75 1020.8
20260905091239 21 157 1.6 6.4 0.00 0.00 0.00 75 1020.7
20260905085803 20 21 0.0 6.4 0.00 0.00 0.00 78 1021.0
20260905085726 22 50 3.2 4.8 0.00 0.00 0.00 75 1020.9
20260905083758 21 313 0.0 3.2 0.00 0.00 0.00 75 1020.9
20260905082758 19 14 3.2 3.2 0.00 0.00 0.00 79 1021.0
20260905081758 18 8 1.6 4.8 0.00 0.00 0.00 81 1020.7
20260905080758 18 342 3.2 4.8 0.00 0.00 0.00 77 1020.8
20260905075758 18 343 3.2 9.7 0.00 0.00 0.00 79 1020.6
20260905074758 18 343 4.8 9.7 0.00 0.00 0.00 81 1020.4
20260905073758 18 2 6.4 9.7 0.00 0.00 0.00 83 1020.5
20260905072758 18 342 6.4 9.7 0.00 0.00 0.00 85 1020.2
20260905071758 18 342 4.8 9.7 0.00 0.00 0.00 85 1020.1
20260905070759 18 350 4.8 9.7 0.00 0.00 0.00 85 1020.2
20260905065758 18 337 4.8 6.4 0.00 0.00 0.00 87 1020.1
20260905064759 18 342 4.8 4.8 0.00 0.00 0.00 87 1020.2
20260905063758 17 8 1.6 4.8 0.00 0.00 0.00 87 1019.9
20260905063720 17 356 3.2 6.4 0.00 0.00 0.00 87 1019.9
20260905061758 17 355 3.2 6.4 0.00 0.00 0.00 86 1019.7
20260905060758 17 352 3.2 6.4 0.00 0.00 0.00 85 1019.7
20260905055758 17 342 4.8 9.7 0.00 0.00 0.00 85 1019.2
20260905055246 17 339 4.8 9.7 0.00 0.00 0.00 85 1019.4
20260905053758 17 337 4.8 6.4 0.00 0.00 0.00 86 1019.2
20260905052758 18 343 3.2 6.4 0.00 0.00 0.00 87 1019.4
20260905051757 18 341 4.8 4.8 0.00 0.00 0.00 86 1019.5
20260905050758 17 349 3.2 6.4 0.00 0.00 0.00 85 1019.6
20260905045758 17 336 3.2 4.8 0.00 0.00 0.00 85 1019.4
20260905045248 17 345 3.2 4.8 0.00 0.00 0.00 82 1019.4
20260905043758 17 342 3.2 6.4 0.00 0.00 0.00 83 1019.4
20260905043729 16 355 3.2 6.4 0.00 0.00 0.00 82 1019.4
20260905041758 16 343 4.8 6.4 0.00 0.00 0.00 79 1019.4
20260905040758 17 340 3.2 9.7 0.00 0.00 0.00 78 1019.4
20260905035758 17 339 8.0 9.7 0.00 0.00 0.00 83 1019.4
20260905034758 18 328 4.8 6.4 0.00 0.00 0.00 86 1019.4
20260905033758 18 345 4.8 9.7 0.00 0.00 0.00 85 1019.5
20260905033239 18 330 4.8 11.3 0.00 0.00 0.00 84 1019.7
20260905032239 18 341 6.4 11.3 0.00 0.00 0.00 84 1019.9
20260905030758 18 330 4.8 9.7 0.00 0.00 0.00 85 1020.0
20260905025758 18 327 4.8 9.7 0.00 0.00 0.00 85 1019.9
20260905024758 18 346 4.8 6.4 0.00 0.00 0.00 84 1020.2
20260905023759 18 334 4.8 11.3 0.00 0.00 0.00 83 1020.0
20260905022758 18 336 8.0 11.3 0.00 0.00 0.00 84 1020.1
20260905021758 18 345 1.6 9.7 0.00 0.00 0.00 84 1020.3
20260905020759 18 326 6.4 9.7 0.00 0.00 0.00 84 1020.4
20260905020245 18 340 8.0 11.3 0.00 0.00 0.00 83 1020.4
20260905014758 18 8 6.4 9.7 0.00 0.00 0.00 82 1020.7
20260905013758 18 337 6.4 9.7 0.00 0.00 0.00 82 1020.7
20260905013247 18 343 6.4 9.7 0.00 0.00 0.00 82 1020.7
20260905011758 18 333 6.4 9.7 0.00 0.00 0.00 82 1020.9
20260905010758 19 342 4.8 6.4 0.00 0.00 0.00 83 1021.1
20260905005758 19 342 3.2 3.2 0.00 0.00 0.00 83 1021.0
20260905005238 19 352 1.6 3.2 0.00 0.00 0.00 84 1021.5
20260905003758 19 15 0.0 3.2 0.00 0.00 0.00 85 1021.2
20260905002758 19 351 1.6 3.2 0.00 0.00 0.00 84 1021.3
20260905001757 18 352 1.6 3.2 0.00 0.00 0.00 84 1021.5
20260905001237 18 342 1.6 3.2 0.00 0.00 0.00 83 1021.3
20260905000238 18 339 1.6 3.2 0.00 0.00 0.00 83 1021.5
20260904234758 18 355 1.6 3.2 0.00 0.00 0.00 83 1021.5
20260904233758 18 337 1.6 4.8 0.00 0.00 0.00 84 1021.3
20260904232758 18 355 3.2 6.4 0.00 0.00 0.00 85 1021.2
20260904231758 18 348 3.2 4.8 0.00 0.00 0.00 83 1021.3
20260904230758 19 26 1.6 6.4 0.00 0.00 0.00 84 1021.2
20260904225758 19 333 3.2 4.8 0.00 0.00 0.00 84 1021.5
20260904224758 18 343 1.6 6.4 0.00 0.00 0.00 84 1021.1
20260904223759 18 344 3.2 6.4 0.00 0.00 0.00 83 1021.5
20260904222758 18 346 3.2 6.4 0.00 0.00 0.00 82 1021.5
20260904221758 18 334 3.2 6.4 0.00 0.00 0.00 83 1021.3
20260904220759 18 351 4.8 9.7 0.00 0.00 0.00 84 1021.7
20260904215758 19 340 3.2 9.7 0.00 0.00 0.00 85 1021.6
20260904214758 19 328 3.2 6.4 0.00 0.00 0.00 86 1021.5
20260904213758 20 6 0.0 1.6 0.00 0.00 0.00 87 1021.3
20260904212758 20 44 1.6 1.6 0.00 0.00 0.00 88 1021.5
20260904211758 20 109 0.0 3.2 0.00 0.00 0.00 88 1021.3
20260904210759 20 84 0.0 1.6 0.00 0.00 0.00 87 1021.6
20260904205758 20 15 0.0 1.6 0.00 0.00 0.00 88 1021.5
20260904204758 19 25 0.0 1.6 0.00 0.00 0.00 87 1021.3
20260904203757 19 329 0.0 1.6 0.00 0.00 0.00 88 1021.2
20260904202759 19 25 0.0 1.6 0.00 0.00 0.00 89 1021.0
20260904201758 18 12 0.0 3.2 0.00 0.00 0.00 89 1020.8
20260904200759 18 345 0.0 3.2 0.00 0.00 0.00 89 1020.7
20260904195757 19 80 0.0 3.2 0.00 0.00 0.00 90 1020.5
20260904194758 19 339 0.0 1.6 0.00 0.00 0.00 90 1020.3
20260904193758 19 37 0.0 1.6 0.00 0.00 0.00 89 1020.0
20260904192757 20 143 0.0 1.6 0.00 0.00 0.00 89 1020.0
20260904191758 20 111 1.6 3.2 0.00 0.00 0.00 89 1020.0
20260904190758 20 128 1.6 6.4 0.00 0.00 0.00 88 1020.1
20260904185758 20 141 3.2 4.8 0.00 0.00 0.00 88 1019.9
20260904184758 20 164 1.6 4.8 0.00 0.00 0.00 87 1020.1
20260904183759 20 195 0.0 9.7 0.00 0.00 0.00 86 1019.7
20260904182758 20 133 3.2 4.8 0.00 0.00 0.00 86 1019.8
20260904181758 20 180 1.6 11.3 0.00 0.00 0.00 86 1019.9
20260904180758 20 165 4.8 9.7 0.00 0.00 0.00 86 1019.9
20260904180235 21 119 4.8 9.7 0.00 0.00 0.00 85 1019.9
20260904174801 21 119 6.4 9.7 0.00 0.00 0.00 84 1019.9
20260904173758 21 164 4.8 9.7 0.00 0.00 0.00 84 1019.7
20260904172758 21 120 1.6 9.7 0.00 0.00 0.00 83 1019.7
20260904171758 21 121 6.4 9.7 0.00 0.00 0.00 82 1019.8
20260904170758 21 151 3.2 12.9 0.00 0.00 0.00 82 1019.9
20260904170232 22 178 3.2 11.3 0.00 0.00 0.00 80 1019.9
20260904164758 22 157 6.4 12.9 0.00 0.00 0.00 78 1020.0
20260904163758 22 161 6.4 11.3 0.00 0.00 0.00 77 1019.7
20260904162757 22 108 4.8 12.9 0.00 0.00 0.00 79 1020.0
20260904161757 23 109 6.4 12.9 0.00 0.00 0.00 77 1020.0
20260904160758 22 219 4.8 11.3 0.00 0.00 0.00 78 1020.0
20260904155758 22 185 4.8 11.3 0.00 0.00 0.00 81 1020.0
20260904155255 21 105 4.8 11.3 0.00 0.00 0.00 81 1020.4
20260904153758 21 103 3.2 11.3 0.00 0.00 0.00 83 1020.5
20260904152759 21 193 4.8 9.7 0.00 0.00 0.00 82 1020.7
20260904151802 21 183 3.2 12.9 0.00 0.00 0.00 84 1020.9
20260904150758 21 109 6.4 11.3 0.00 0.00 0.00 83 1020.7
20260904150240 21 126 3.2 6.4 0.00 0.00 0.00 83 1021.2
20260904144758 21 180 4.8 9.7 0.00 0.00 0.00 83 1021.0
20260904143758 21 151 3.2 11.3 0.00 0.00 0.00 84 1021.1
20260904142759 21 132 3.2 11.3 0.00 0.00 0.00 83 1021.1
20260904141758 21 121 4.8 11.3 0.00 0.00 0.00 82 1021.2
20260904140758 21 144 4.8 12.9 0.00 0.00 0.00 81 1021.1
20260904140237 21 111 6.4 12.9 0.00 0.00 0.00 80 1021.1
20260904134758 22 212 4.8 12.9 0.00 0.00 0.00 79 1021.1
20260904133758 22 163 4.8 12.9 0.00 0.00 0.00 79 1021.0
20260904132759 22 122 6.4 11.3 0.00 0.00 0.00 77 1021.1